| time (UTC) | temp F | wind direction | speed MPH | gust MPH | rain 1hr in | rain 24hr in | rain mn in | humidity % | barometer mb |
| 20260906224033 | 63 | 44 | 0.0 | 10.0 | 0.00 | 0.01 | 0.00 | 63 | 1012.4 |
| 20260906223533 | 63 | 217 | 4.0 | 12.0 | 0.00 | 0.01 | 0.00 | 62 | 1012.4 |
| 20260906223033 | 64 | 289 | 6.0 | 12.0 | 0.00 | 0.01 | 0.00 | 59 | 1011.8 |
| 20260906222533 | 66 | 307 | 3.0 | 15.0 | 0.00 | 0.01 | 0.00 | 55 | 1011.9 |
| 20260906222033 | 67 | 264 | 3.0 | 13.0 | 0.00 | 0.01 | 0.00 | 51 | 1011.8 |
| 20260906221532 | 68 | 259 | 5.0 | 12.0 | 0.00 | 0.01 | 0.00 | 49 | 1011.9 |
| 20260906221031 | 69 | 264 | 0.0 | 6.0 | 0.00 | 0.01 | 0.00 | 52 | 1011.8 |
| 20260906220532 | 70 | 235 | 2.0 | 7.0 | 0.00 | 0.01 | 0.00 | 52 | 1011.7 |
| 20260906220032 | 70 | 288 | 2.0 | 6.0 | 0.00 | 0.01 | 0.00 | 51 | 1011.7 |
| 20260906215531 | 70 | 297 | 0.0 | 2.0 | 0.00 | 0.01 | 0.00 | 52 | 1011.7 |
| 20260906215031 | 70 | 87 | 0.0 | 2.0 | 0.00 | 0.01 | 0.00 | 53 | 1011.7 |
| 20260906214531 | 70 | 86 | 0.0 | 4.0 | 0.00 | 0.01 | 0.00 | 53 | 1011.8 |
| 20260906214030 | 70 | 98 | 1.0 | 4.0 | 0.00 | 0.01 | 0.00 | 53 | 1011.7 |
| 20260906213530 | 70 | 73 | 0.0 | 2.0 | 0.00 | 0.01 | 0.00 | 52 | 1011.7 |
| 20260906213033 | 70 | 78 | 1.0 | 6.0 | 0.00 | 0.01 | 0.00 | 53 | 1011.7 |
| 20260906212528 | 70 | 96 | 1.0 | 6.0 | 0.00 | 0.01 | 0.00 | 52 | 1011.8 |
| 20260906212029 | 70 | 86 | 3.0 | 5.0 | 0.00 | 0.01 | 0.00 | 54 | 1011.9 |
| 20260906211529 | 69 | 84 | 2.0 | 7.0 | 0.00 | 0.01 | 0.00 | 56 | 1011.8 |
| 20260906211028 | 69 | 83 | 5.0 | 7.0 | 0.00 | 0.01 | 0.00 | 56 | 1011.9 |
| 20260906210528 | 69 | 82 | 4.0 | 6.0 | 0.00 | 0.01 | 0.00 | 60 | 1012.0 |
| 20260906210028 | 69 | 82 | 4.0 | 8.0 | 0.00 | 0.01 | 0.00 | 59 | 1012.0 |
| 20260906205527 | 69 | 94 | 4.0 | 8.0 | 0.00 | 0.01 | 0.00 | 57 | 1012.0 |
| 20260906205026 | 70 | 115 | 3.0 | 10.0 | 0.00 | 0.01 | 0.00 | 54 | 1012.1 |
| 20260906204525 | 70 | 87 | 3.0 | 12.0 | 0.00 | 0.01 | 0.00 | 55 | 1012.1 |
| 20260906204025 | 71 | 86 | 3.0 | 6.0 | 0.00 | 0.01 | 0.00 | 55 | 1012.2 |
| 20260906203525 | 70 | 70 | 2.0 | 5.0 | 0.00 | 0.01 | 0.00 | 55 | 1012.2 |
| 20260906203025 | 68 | 83 | 1.0 | 8.0 | 0.00 | 0.01 | 0.00 | 62 | 1012.2 |
| 20260906202524 | 68 | 86 | 4.0 | 8.0 | 0.00 | 0.01 | 0.00 | 62 | 1012.3 |
| 20260906202024 | 69 | 85 | 4.0 | 6.0 | 0.00 | 0.01 | 0.00 | 60 | 1012.2 |
| 20260906201524 | 70 | 96 | 3.0 | 7.0 | 0.00 | 0.01 | 0.00 | 57 | 1012.2 |
| 20260906201023 | 70 | 85 | 3.0 | 8.0 | 0.00 | 0.01 | 0.00 | 51 | 1012.2 |
| 20260906200524 | 71 | 84 | 5.0 | 8.0 | 0.00 | 0.01 | 0.00 | 47 | 1012.3 |
| 20260906200024 | 71 | 74 | 1.0 | 5.0 | 0.00 | 0.01 | 0.00 | 46 | 1012.1 |
| 20260906195522 | 71 | 46 | 3.0 | 8.0 | 0.00 | 0.01 | 0.00 | 45 | 1012.2 |
| 20260906195023 | 71 | 79 | 4.0 | 8.0 | 0.00 | 0.01 | 0.00 | 45 | 1012.2 |
| 20260906194523 | 72 | 27 | 2.0 | 7.0 | 0.00 | 0.01 | 0.00 | 45 | 1012.4 |
| 20260906194023 | 72 | 90 | 0.0 | 7.0 | 0.00 | 0.01 | 0.00 | 45 | 1012.3 |
| 20260906193523 | 72 | 26 | 3.0 | 7.0 | 0.00 | 0.01 | 0.00 | 44 | 1012.4 |
| 20260906193022 | 72 | 34 | 2.0 | 7.0 | 0.00 | 0.01 | 0.00 | 43 | 1012.3 |
| 20260906192521 | 72 | 46 | 3.0 | 8.0 | 0.00 | 0.01 | 0.00 | 43 | 1012.4 |
| 20260906192022 | 72 | 49 | 2.0 | 8.0 | 0.00 | 0.01 | 0.00 | 43 | 1012.4 |
| 20260906191520 | 72 | 77 | 3.0 | 12.0 | 0.00 | 0.01 | 0.00 | 43 | 1012.3 |
| 20260906191019 | 72 | 26 | 6.0 | 14.0 | 0.00 | 0.01 | 0.00 | 42 | 1012.5 |
| 20260906190523 | 73 | 101 | 8.0 | 14.0 | 0.00 | 0.01 | 0.00 | 41 | 1012.4 |
| 20260906190020 | 74 | 85 | 9.0 | 14.0 | 0.00 | 0.01 | 0.00 | 41 | 1012.4 |
| 20260906185519 | 74 | 59 | 7.0 | 18.0 | 0.00 | 0.01 | 0.00 | 41 | 1012.6 |
| 20260906185019 | 74 | 98 | 6.0 | 13.0 | 0.00 | 0.01 | 0.00 | 42 | 1012.5 |
| 20260906184519 | 74 | 127 | 8.0 | 13.0 | 0.00 | 0.01 | 0.00 | 42 | 1012.6 |
| 20260906184018 | 73 | 68 | 7.0 | 13.0 | 0.00 | 0.01 | 0.00 | 43 | 1012.6 |
| 20260906183519 | 72 | 126 | 6.0 | 14.0 | 0.00 | 0.01 | 0.00 | 42 | 1012.8 |
| 20260906183017 | 73 | 72 | 8.0 | 15.0 | 0.00 | 0.01 | 0.00 | 42 | 1012.8 |
| 20260906182516 | 73 | 79 | 5.0 | 15.0 | 0.00 | 0.01 | 0.00 | 41 | 1012.9 |
| 20260906182017 | 74 | 72 | 9.0 | 14.0 | 0.00 | 0.01 | 0.00 | 42 | 1012.9 |
| 20260906181518 | 74 | 84 | 7.0 | 16.0 | 0.00 | 0.01 | 0.00 | 40 | 1013.1 |
| 20260906181015 | 74 | 114 | 9.0 | 16.0 | 0.00 | 0.01 | 0.00 | 40 | 1013.1 |
| 20260906180515 | 74 | 94 | 8.0 | 14.0 | 0.00 | 0.01 | 0.00 | 39 | 1013.2 |
| 20260906180014 | 74 | 56 | 10.0 | 14.0 | 0.00 | 0.01 | 0.00 | 39 | 1013.2 |
| 20260906175514 | 75 | 98 | 8.0 | 15.0 | 0.00 | 0.01 | 0.00 | 38 | 1013.3 |
| 20260906175013 | 75 | 72 | 8.0 | 13.0 | 0.00 | 0.01 | 0.00 | 38 | 1013.3 |
| 20260906174517 | 76 | 81 | 8.0 | 15.0 | 0.00 | 0.01 | 0.00 | 37 | 1013.4 |
| 20260906174013 | 75 | 87 | 8.0 | 15.0 | 0.00 | 0.01 | 0.00 | 37 | 1013.4 |
| 20260906173512 | 75 | 88 | 5.0 | 13.0 | 0.00 | 0.01 | 0.00 | 38 | 1013.5 |
| 20260906173012 | 75 | 85 | 7.0 | 17.0 | 0.00 | 0.01 | 0.00 | 38 | 1013.5 |
| 20260906172511 | 75 | 79 | 11.0 | 17.0 | 0.00 | 0.01 | 0.00 | 37 | 1013.5 |
| 20260906172010 | 75 | 120 | 9.0 | 14.0 | 0.00 | 0.01 | 0.00 | 37 | 1013.7 |
| 20260906171510 | 75 | 81 | 6.0 | 12.0 | 0.00 | 0.01 | 0.00 | 37 | 1013.7 |
| 20260906171009 | 76 | 84 | 8.0 | 11.0 | 0.00 | 0.01 | 0.00 | 35 | 1013.8 |
| 20260906170510 | 75 | 49 | 1.0 | 9.0 | 0.00 | 0.01 | 0.00 | 34 | 1013.9 |
| 20260906170015 | 76 | 146 | 4.0 | 9.0 | 0.00 | 0.01 | 0.00 | 34 | 1013.9 |
| 20260906165511 | 76 | 98 | 5.0 | 12.0 | 0.00 | 0.01 | 0.00 | 33 | 1013.9 |
| 20260906165008 | 75 | 84 | 2.0 | 12.0 | 0.00 | 0.01 | 0.00 | 34 | 1014.0 |
| 20260906164507 | 75 | 93 | 6.0 | 13.0 | 0.00 | 0.01 | 0.00 | 33 | 1014.1 |
| 20260906164008 | 75 | 84 | 5.0 | 13.0 | 0.00 | 0.01 | 0.00 | 33 | 1014.0 |
| 20260906163505 | 75 | 84 | 4.0 | 9.0 | 0.00 | 0.01 | 0.00 | 35 | 1013.9 |
| 20260906163005 | 75 | 128 | 0.0 | 7.0 | 0.00 | 0.01 | 0.00 | 34 | 1014.1 |
| 20260906162509 | 74 | 91 | 2.0 | 8.0 | 0.00 | 0.01 | 0.00 | 35 | 1014.1 |
| 20260906162004 | 74 | 87 | 5.0 | 9.0 | 0.00 | 0.01 | 0.00 | 37 | 1014.2 |
| 20260906161504 | 74 | 73 | 5.0 | 9.0 | 0.00 | 0.01 | 0.00 | 36 | 1014.3 |
| 20260906161004 | 74 | 56 | 3.0 | 11.0 | 0.00 | 0.01 | 0.00 | 36 | 1014.3 |
| 20260906160503 | 75 | 13 | 2.0 | 8.0 | 0.00 | 0.01 | 0.00 | 36 | 1014.5 |
| 20260906160006 | 74 | 43 | 3.0 | 8.0 | 0.00 | 0.01 | 0.00 | 37 | 1014.4 |
| 20260906155503 | 73 | 100 | 0.0 | 8.0 | 0.00 | 0.01 | 0.00 | 38 | 1014.4 |
| 20260906155003 | 72 | 51 | 4.0 | 11.0 | 0.00 | 0.01 | 0.00 | 39 | 1014.4 |
| 20260906154508 | 73 | 94 | 7.0 | 11.0 | 0.00 | 0.01 | 0.00 | 38 | 1014.3 |
| 20260906154004 | 73 | 85 | 4.0 | 11.0 | 0.00 | 0.01 | 0.00 | 38 | 1014.3 |
| 20260906153600 | 73 | 86 | 6.0 | 11.0 | 0.00 | 0.01 | 0.00 | 37 | 1014.3 |
| 20260906153104 | 73 | 44 | 0.0 | 4.0 | 0.00 | 0.01 | 0.00 | 36 | 1014.3 |
| 20260906152559 | 73 | 308 | 1.0 | 4.0 | 0.00 | 0.01 | 0.00 | 37 | 1014.5 |
| 20260906152100 | 73 | 94 | 0.0 | 4.0 | 0.00 | 0.01 | 0.00 | 36 | 1014.6 |
| 20260906151558 | 72 | 94 | 1.0 | 4.0 | 0.00 | 0.01 | 0.00 | 37 | 1014.6 |
| 20260906151057 | 72 | 37 | 1.0 | 5.0 | 0.00 | 0.01 | 0.00 | 37 | 1014.8 |
| 20260906150557 | 72 | 82 | 0.0 | 5.0 | 0.00 | 0.01 | 0.00 | 38 | 1014.8 |
| 20260906150059 | 71 | 243 | 2.0 | 5.0 | 0.00 | 0.01 | 0.00 | 37 | 1014.9 |
| 20260906145555 | 71 | 281 | 0.0 | 5.0 | 0.00 | 0.01 | 0.00 | 38 | 1015.0 |
| 20260906145055 | 70 | 290 | 1.0 | 6.0 | 0.00 | 0.01 | 0.00 | 38 | 1014.9 |
| 20260906144552 | 69 | 239 | 1.0 | 7.0 | 0.00 | 0.01 | 0.00 | 40 | 1015.0 |
| 20260906144050 | 68 | 336 | 0.0 | 7.0 | 0.00 | 0.01 | 0.00 | 42 | 1015.0 |
| 20260906143549 | 66 | 200 | 0.0 | 4.0 | 0.00 | 0.01 | 0.00 | 48 | 1015.1 |
| 20260906143046 | 65 | 295 | 0.0 | 3.0 | 0.00 | 0.01 | 0.00 | 52 | 1015.1 |
| 20260906142545 | 64 | 278 | 0.0 | 4.0 | 0.00 | 0.01 | 0.00 | 54 | 1015.0 |
| 20260906142044 | 63 | 303 | 0.0 | 5.0 | 0.00 | 0.01 | 0.00 | 53 | 1015.1 |
| 20260906141544 | 63 | 195 | 1.0 | 5.0 | 0.00 | 0.01 | 0.00 | 50 | 1015.1 |
| 20260906141043 | 62 | 203 | 0.0 | 3.0 | 0.00 | 0.01 | 0.00 | 53 | 1015.0 |
| 20260906140543 | 61 | 232 | 0.0 | 4.0 | 0.00 | 0.01 | 0.00 | 58 | 1015.0 |
| 20260906140038 | 59 | 236 | 0.0 | 4.0 | 0.00 | 0.01 | 0.00 | 61 | 1015.0 |
| 20260906135538 | 58 | 336 | 0.0 | 3.0 | 0.00 | 0.01 | 0.00 | 63 | 1015.0 |
| 20260906135040 | 56 | 312 | 1.0 | 3.0 | 0.00 | 0.01 | 0.00 | 65 | 1015.1 |
| 20260906134547 | 55 | 301 | 0.0 | 4.0 | 0.00 | 0.01 | 0.00 | 67 | 1015.1 |
| 20260906134037 | 54 | 307 | 1.0 | 4.0 | 0.00 | 0.01 | 0.00 | 68 | 1015.2 |
| 20260906133537 | 54 | 319 | 1.0 | 3.0 | 0.00 | 0.01 | 0.00 | 69 | 1015.2 |
| 20260906133101 | 53 | 231 | 1.0 | 3.0 | 0.00 | 0.01 | 0.00 | 71 | 1015.2 |
| 20260906132537 | 52 | 278 | 0.0 | 3.0 | 0.00 | 0.01 | 0.00 | 72 | 1015.1 |
| 20260906132036 | 51 | 283 | 0.0 | 4.0 | 0.00 | 0.01 | 0.00 | 73 | 1015.1 |
| 20260906131536 | 50 | 300 | 1.0 | 4.0 | 0.00 | 0.01 | 0.00 | 75 | 1015.1 |
| 20260906131035 | 49 | 317 | 2.0 | 4.0 | 0.00 | 0.01 | 0.00 | 77 | 1014.9 |
| 20260906130536 | 48 | 281 | 0.0 | 2.0 | 0.00 | 0.01 | 0.00 | 79 | 1014.7 |
| 20260906130038 | 48 | 297 | 0.0 | 2.0 | 0.00 | 0.01 | 0.00 | 80 | 1014.8 |
| 20260906125536 | 48 | 281 | 0.0 | 1.0 | 0.00 | 0.01 | 0.00 | 80 | 1014.7 |
| 20260906125034 | 48 | 300 | 0.0 | 1.0 | 0.00 | 0.01 | 0.00 | 80 | 1014.7 |
| 20260906124535 | 47 | 286 | 0.0 | 3.0 | 0.00 | 0.01 | 0.00 | 80 | 1014.6 |
| 20260906124035 | 47 | 278 | 0.0 | 2.0 | 0.00 | 0.01 | 0.00 | 80 | 1014.6 |
| 20260906123537 | 48 | 285 | 0.0 | 2.0 | 0.00 | 0.01 | 0.00 | 79 | 1014.5 |
| 20260906123033 | 48 | 284 | 0.0 | 2.0 | 0.00 | 0.01 | 0.00 | 79 | 1014.5 |
| 20260906122533 | 48 | 283 | 0.0 | 1.0 | 0.00 | 0.01 | 0.00 | 78 | 1014.4 |
| 20260906122032 | 48 | 281 | 0.0 | 1.0 | 0.00 | 0.01 | 0.00 | 77 | 1014.5 |
| 20260906121531 | 48 | 277 | 0.0 | 1.0 | 0.00 | 0.01 | 0.00 | 77 | 1014.4 |
| 20260906121030 | 48 | 277 | 0.0 | 2.0 | 0.00 | 0.01 | 0.00 | 77 | 1014.3 |
| 20260906120530 | 48 | 310 | 0.0 | 2.0 | 0.00 | 0.01 | 0.00 | 77 | 1014.4 |
| 20260906120030 | 48 | 283 | 0.0 | 3.0 | 0.00 | 0.01 | 0.00 | 76 | 1014.4 |
| 20260906115535 | 49 | 307 | 0.0 | 3.0 | 0.00 | 0.01 | 0.00 | 77 | 1014.5 |
| 20260906115029 | 48 | 284 | 0.0 | 3.0 | 0.00 | 0.01 | 0.00 | 77 | 1014.5 |
| 20260906114530 | 49 | 278 | 0.0 | 3.0 | 0.00 | 0.01 | 0.00 | 76 | 1014.5 |
| 20260906114029 | 48 | 283 | 0.0 | 4.0 | 0.00 | 0.01 | 0.00 | 77 | 1014.5 |
| 20260906113529 | 48 | 288 | 1.0 | 4.0 | 0.00 | 0.01 | 0.00 | 77 | 1014.5 |
| 20260906113026 | 49 | 276 | 0.0 | 4.0 | 0.00 | 0.01 | 0.00 | 77 | 1014.5 |
| 20260906112526 | 49 | 293 | 0.0 | 3.0 | 0.00 | 0.01 | 0.00 | 76 | 1014.5 |
| 20260906112026 | 49 | 309 | 1.0 | 3.0 | 0.00 | 0.01 | 0.00 | 76 | 1014.5 |
| 20260906111526 | 49 | 262 | 0.0 | 3.0 | 0.00 | 0.01 | 0.00 | 77 | 1014.4 |
| 20260906111024 | 49 | 275 | 0.0 | 3.0 | 0.00 | 0.01 | 0.00 | 77 | 1014.4 |
| 20260906110524 | 50 | 300 | 0.0 | 3.0 | 0.00 | 0.01 | 0.00 | 75 | 1014.4 |
| 20260906110024 | 50 | 314 | 0.0 | 1.0 | 0.00 | 0.01 | 0.00 | 74 | 1014.3 |
| 20260906105522 | 51 | 314 | 0.0 | 1.0 | 0.00 | 0.01 | 0.00 | 74 | 1014.4 |
| 20260906105022 | 51 | 315 | 0.0 | 1.0 | 0.00 | 0.01 | 0.00 | 74 | 1014.3 |
| 20260906104532 | 51 | 301 | 0.0 | 2.0 | 0.00 | 0.01 | 0.00 | 75 | 1014.3 |
| 20260906104021 | 51 | 277 | 0.0 | 3.0 | 0.00 | 0.01 | 0.00 | 75 | 1014.3 |
| 20260906103520 | 51 | 270 | 0.0 | 4.0 | 0.00 | 0.01 | 0.00 | 74 | 1014.2 |
| 20260906103028 | 51 | 269 | 1.0 | 4.0 | 0.00 | 0.01 | 0.00 | 74 | 1014.3 |
| 20260906102520 | 51 | 300 | 1.0 | 4.0 | 0.00 | 0.01 | 0.00 | 75 | 1014.2 |
| 20260906102019 | 51 | 293 | 0.0 | 3.0 | 0.00 | 0.01 | 0.00 | 76 | 1014.2 |
| 20260906101528 | 51 | 302 | 0.0 | 2.0 | 0.00 | 0.01 | 0.00 | 76 | 1014.2 |
| 20260906101019 | 51 | 311 | 0.0 | 2.0 | 0.00 | 0.01 | 0.00 | 76 | 1014.2 |
| 20260906100519 | 51 | 307 | 0.0 | 3.0 | 0.00 | 0.01 | 0.00 | 75 | 1014.3 |
| 20260906100017 | 52 | 316 | 0.0 | 3.0 | 0.00 | 0.01 | 0.00 | 74 | 1014.2 |
| 20260906095518 | 52 | 304 | 1.0 | 3.0 | 0.00 | 0.01 | 0.00 | 74 | 1014.2 |
| 20260906095017 | 52 | 287 | 1.0 | 5.0 | 0.00 | 0.01 | 0.00 | 74 | 1014.0 |
| 20260906094517 | 52 | 290 | 1.0 | 5.0 | 0.00 | 0.01 | 0.00 | 74 | 1014.1 |
| 20260906094016 | 52 | 272 | 0.0 | 3.0 | 0.00 | 0.01 | 0.00 | 75 | 1014.1 |
| 20260906093516 | 53 | 278 | 0.0 | 3.0 | 0.00 | 0.01 | 0.00 | 75 | 1014.2 |
| 20260906093016 | 53 | 317 | 0.0 | 3.0 | 0.00 | 0.01 | 0.00 | 75 | 1014.3 |
| 20260906092516 | 52 | 259 | 0.0 | 5.0 | 0.00 | 0.01 | 0.00 | 75 | 1014.5 |
| 20260906092017 | 52 | 279 | 0.0 | 5.0 | 0.00 | 0.01 | 0.00 | 76 | 1014.5 |
| 20260906091516 | 52 | 290 | 0.0 | 2.0 | 0.00 | 0.01 | 0.00 | 76 | 1014.5 |
| 20260906091015 | 52 | 293 | 0.0 | 1.0 | 0.00 | 0.01 | 0.00 | 76 | 1014.4 |
| 20260906090515 | 52 | 303 | 0.0 | 2.0 | 0.00 | 0.01 | 0.00 | 77 | 1014.3 |
| 20260906090015 | 52 | 315 | 0.0 | 3.0 | 0.00 | 0.01 | 0.00 | 77 | 1014.3 |
| 20260906085514 | 52 | 321 | 0.0 | 2.0 | 0.00 | 0.01 | 0.00 | 79 | 1014.3 |
| 20260906085014 | 52 | 278 | 0.0 | 2.0 | 0.00 | 0.01 | 0.00 | 80 | 1014.2 |
| 20260906084515 | 51 | 307 | 0.0 | 1.0 | 0.00 | 0.01 | 0.00 | 81 | 1014.1 |
| 20260906084017 | 51 | 307 | 0.0 | 2.0 | 0.00 | 0.01 | 0.00 | 81 | 1014.2 |
| 20260906083514 | 51 | 276 | 0.0 | 2.0 | 0.00 | 0.01 | 0.00 | 81 | 1014.2 |
| 20260906083012 | 52 | 272 | 1.0 | 2.0 | 0.00 | 0.01 | 0.00 | 81 | 1014.2 |
| 20260906082511 | 52 | 283 | 0.0 | 2.0 | 0.00 | 0.01 | 0.00 | 80 | 1014.2 |
| 20260906082009 | 53 | 280 | 0.0 | 2.0 | 0.00 | 0.01 | 0.00 | 79 | 1014.3 |
| 20260906081509 | 53 | 263 | 0.0 | 3.0 | 0.00 | 0.01 | 0.00 | 78 | 1014.4 |
| 20260906081006 | 54 | 297 | 0.0 | 2.0 | 0.00 | 0.01 | 0.00 | 76 | 1014.3 |
| 20260906080505 | 54 | 301 | 0.0 | 2.0 | 0.00 | 0.01 | 0.00 | 76 | 1014.4 |
| 20260906080004 | 55 | 272 | 0.0 | 1.0 | 0.00 | 0.01 | 0.00 | 73 | 1014.4 |
| 20260906075502 | 56 | 272 | 0.0 | 1.0 | 0.00 | 0.01 | 0.00 | 71 | 1014.5 |
| 20260906075001 | 57 | 273 | 0.0 | 7.0 | 0.00 | 0.01 | 0.00 | 69 | 1014.5 |
| 20260906074603 | 58 | 257 | 1.0 | 7.0 | 0.00 | 0.01 | 0.00 | 67 | 1014.5 |
| 20260906074059 | 58 | 239 | 2.0 | 10.0 | 0.00 | 0.01 | 0.00 | 66 | 1014.5 |
| 20260906073559 | 58 | 212 | 4.0 | 10.0 | 0.00 | 0.01 | 0.00 | 67 | 1014.5 |
| 20260906073058 | 58 | 208 | 5.0 | 8.0 | 0.00 | 0.01 | 0.00 | 67 | 1014.6 |
| 20260906072557 | 58 | 210 | 2.0 | 7.0 | 0.00 | 0.01 | 0.00 | 67 | 1014.6 |
| 20260906072057 | 59 | 273 | 1.0 | 7.0 | 0.00 | 0.01 | 0.00 | 67 | 1014.6 |
| 20260906071558 | 59 | 198 | 4.0 | 7.0 | 0.00 | 0.01 | 0.00 | 67 | 1014.6 |
| 20260906071056 | 58 | 260 | 3.0 | 9.0 | 0.00 | 0.01 | 0.00 | 67 | 1014.7 |
| 20260906070557 | 58 | 274 | 3.0 | 10.0 | 0.00 | 0.01 | 0.00 | 67 | 1014.6 |
| 20260906070056 | 59 | 285 | 4.0 | 8.0 | 0.00 | 0.01 | 0.00 | 66 | 1014.6 |
| 20260906065555 | 59 | 242 | 2.0 | 8.0 | 0.00 | 0.01 | 0.00 | 66 | 1014.6 |
| 20260906065055 | 59 | 243 | 3.0 | 8.0 | 0.00 | 0.01 | 0.00 | 67 | 1014.6 |
| 20260906064556 | 58 | 291 | 3.0 | 7.0 | 0.00 | 0.01 | 0.00 | 68 | 1014.7 |
| 20260906064054 | 58 | 282 | 1.0 | 5.0 | 0.01 | 0.01 | 0.00 | 68 | 1014.7 |
| 20260906063555 | 59 | 267 | 2.0 | 6.0 | 0.01 | 0.01 | 0.00 | 67 | 1014.8 |
| 20260906063053 | 59 | 248 | 2.0 | 6.0 | 0.01 | 0.01 | 0.00 | 67 | 1014.8 |
| 20260906062552 | 59 | 265 | 2.0 | 6.0 | 0.01 | 0.01 | 0.00 | 67 | 1014.9 |
| 20260906062051 | 59 | 248 | 0.0 | 4.0 | 0.01 | 0.01 | 0.00 | 67 | 1014.9 |
| 20260906061553 | 59 | 308 | 0.0 | 4.0 | 0.01 | 0.01 | 0.00 | 69 | 1014.9 |
| 20260906061049 | 59 | 243 | 2.0 | 4.0 | 0.01 | 0.01 | 0.00 | 69 | 1015.0 |
| 20260906060548 | 58 | 260 | 1.0 | 5.0 | 0.01 | 0.01 | 0.00 | 72 | 1015.1 |
| 20260906060047 | 60 | 277 | 0.0 | 4.0 | 0.01 | 0.01 | 0.00 | 70 | 1015.1 |
| 20260906055546 | 61 | 281 | 0.0 | 4.0 | 0.01 | 0.01 | 0.01 | 67 | 1015.3 |
| 20260906055047 | 61 | 240 | 1.0 | 4.0 | 0.01 | 0.01 | 0.01 | 62 | 1015.4 |
| 20260906054557 | 61 | 258 | 2.0 | 6.0 | 0.01 | 0.01 | 0.01 | 63 | 1015.4 |
| 20260906054046 | 61 | 239 | 3.0 | 6.0 | 0.00 | 0.00 | 0.00 | 61 | 1015.4 |
| 20260906053545 | 62 | 288 | 0.0 | 6.0 | 0.00 | 0.00 | 0.00 | 59 | 1015.6 |
| 20260906053047 | 63 | 275 | 0.0 | 8.0 | 0.00 | 0.00 | 0.00 | 58 | 1015.5 |
| 20260906052548 | 63 | 240 | 4.0 | 8.0 | 0.00 | 0.00 | 0.00 | 55 | 1015.4 |
| 20260906052046 | 62 | 284 | 0.0 | 3.0 | 0.00 | 0.00 | 0.00 | 56 | 1015.4 |
| 20260906051545 | 61 | 233 | 0.0 | 5.0 | 0.00 | 0.00 | 0.00 | 58 | 1015.5 |
| 20260906051047 | 61 | 264 | 0.0 | 5.0 | 0.00 | 0.00 | 0.00 | 61 | 1015.5 |
| 20260906050548 | 61 | 259 | 0.0 | 2.0 | 0.00 | 0.00 | 0.00 | 62 | 1015.6 |
| 20260906050107 | 61 | 243 | 0.0 | 6.0 | 0.00 | 0.00 | 0.00 | 60 | 1015.6 |
| 20260906045545 | 61 | 244 | 2.0 | 6.0 | 0.00 | 0.00 | 0.00 | 63 | 1015.6 |
| 20260906045045 | 61 | 162 | 0.0 | 5.0 | 0.00 | 0.00 | 0.00 | 61 | 1015.5 |
| 20260906044544 | 61 | 269 | 2.0 | 5.0 | 0.00 | 0.00 | 0.00 | 61 | 1015.6 |
| 20260906044043 | 61 | 239 | 0.0 | 5.0 | 0.00 | 0.00 | 0.00 | 61 | 1015.6 |
| 20260906043545 | 61 | 243 | 2.0 | 8.0 | 0.00 | 0.00 | 0.00 | 61 | 1015.5 |
| 20260906043043 | 61 | 217 | 4.0 | 11.0 | 0.00 | 0.00 | 0.00 | 62 | 1015.5 |
| 20260906042542 | 61 | 271 | 4.0 | 9.0 | 0.00 | 0.00 | 0.00 | 63 | 1015.5 |
| 20260906042042 | 60 | 212 | 4.0 | 8.0 | 0.00 | 0.00 | 0.00 | 64 | 1015.5 |
| 20260906041542 | 61 | 139 | 2.0 | 7.0 | 0.00 | 0.00 | 0.00 | 64 | 1015.5 |
| 20260906041042 | 61 | 193 | 4.0 | 8.0 | 0.00 | 0.00 | 0.00 | 64 | 1015.6 |
| 20260906040541 | 60 | 193 | 4.0 | 8.0 | 0.00 | 0.00 | 0.00 | 64 | 1015.5 |
| 20260906040042 | 60 | 242 | 4.0 | 10.0 | 0.00 | 0.00 | 0.00 | 66 | 1015.7 |
| 20260906035542 | 60 | 308 | 3.0 | 11.0 | 0.00 | 0.00 | 0.00 | 65 | 1015.8 |
| 20260906035041 | 60 | 162 | 2.0 | 10.0 | 0.00 | 0.00 | 0.00 | 64 | 1015.9 |
| 20260906034544 | 61 | 276 | 5.0 | 14.0 | 0.00 | 0.00 | 0.00 | 62 | 1015.7 |
| 20260906034040 | 60 | 260 | 6.0 | 14.0 | 0.00 | 0.00 | 0.00 | 62 | 1015.9 |
| 20260906033540 | 57 | 293 | 1.0 | 4.0 | 0.00 | 0.00 | 0.00 | 66 | 1015.7 |
| 20260906033047 | 55 | 281 | 0.0 | 2.0 | 0.00 | 0.00 | 0.00 | 70 | 1015.4 |
| 20260906032542 | 55 | 288 | 0.0 | 2.0 | 0.00 | 0.00 | 0.00 | 73 | 1015.2 |
| 20260906032037 | 54 | 263 | 0.0 | 2.0 | 0.00 | 0.00 | 0.00 | 73 | 1015.1 |
| 20260906031536 | 54 | 269 | 1.0 | 3.0 | 0.00 | 0.00 | 0.00 | 73 | 1015.1 |
| 20260906031037 | 54 | 323 | 1.0 | 4.0 | 0.00 | 0.00 | 0.00 | 73 | 1015.0 |
| 20260906030536 | 54 | 295 | 1.0 | 4.0 | 0.00 | 0.00 | 0.00 | 74 | 1014.9 |
| 20260906030039 | 54 | 287 | 1.0 | 3.0 | 0.00 | 0.00 | 0.00 | 74 | 1014.8 |
| 20260906025536 | 54 | 252 | 1.0 | 3.0 | 0.00 | 0.00 | 0.00 | 75 | 1014.6 |
| 20260906025038 | 54 | 290 | 1.0 | 3.0 | 0.00 | 0.00 | 0.00 | 75 | 1014.6 |
| 20260906024538 | 54 | 285 | 2.0 | 3.0 | 0.00 | 0.00 | 0.00 | 75 | 1014.6 |
| 20260906024036 | 55 | 276 | 0.0 | 5.0 | 0.00 | 0.00 | 0.00 | 75 | 1014.5 |
| 20260906023536 | 55 | 275 | 1.0 | 5.0 | 0.00 | 0.00 | 0.00 | 75 | 1014.3 |
| 20260906023035 | 55 | 283 | 1.0 | 3.0 | 0.00 | 0.00 | 0.00 | 75 | 1014.2 |
| 20260906022536 | 55 | 277 | 0.0 | 5.0 | 0.00 | 0.00 | 0.00 | 76 | 1014.1 |
| 20260906022034 | 56 | 307 | 1.0 | 5.0 | 0.00 | 0.00 | 0.00 | 76 | 1014.1 |
| 20260906021533 | 56 | 284 | 1.0 | 5.0 | 0.00 | 0.00 | 0.00 | 76 | 1014.1 |
| 20260906021036 | 56 | 276 | 1.0 | 3.0 | 0.00 | 0.00 | 0.00 | 77 | 1014.0 |
| 20260906020534 | 56 | 278 | 1.0 | 3.0 | 0.00 | 0.00 | 0.00 | 77 | 1014.0 |
| 20260906020043 | 57 | 278 | 1.0 | 3.0 | 0.00 | 0.00 | 0.00 | 77 | 1013.9 |
| 20260906015533 | 58 | 277 | 0.0 | 1.0 | 0.00 | 0.00 | 0.00 | 76 | 1013.9 |
| 20260906015033 | 59 | 279 | 0.0 | 1.0 | 0.00 | 0.00 | 0.00 | 77 | 1013.9 |
| 20260906014544 | 59 | 224 | 0.0 | 1.0 | 0.00 | 0.00 | 0.00 | 74 | 1014.0 |
| 20260906014032 | 59 | 225 | 0.0 | 4.0 | 0.00 | 0.00 | 0.00 | 73 | 1014.0 |
| 20260906013532 | 60 | 250 | 1.0 | 4.0 | 0.00 | 0.00 | 0.00 | 74 | 1013.9 |
| 20260906013035 | 60 | 276 | 0.0 | 3.0 | 0.00 | 0.00 | 0.00 | 72 | 1013.9 |
| 20260906012532 | 61 | 333 | 1.0 | 5.0 | 0.00 | 0.00 | 0.00 | 69 | 1014.1 |
| 20260906012031 | 61 | 266 | 3.0 | 5.0 | 0.00 | 0.00 | 0.00 | 63 | 1014.1 |
| 20260906011531 | 61 | 287 | 1.0 | 3.0 | 0.00 | 0.00 | 0.00 | 67 | 1014.2 |
| 20260906011032 | 61 | 313 | 0.0 | 3.0 | 0.00 | 0.00 | 0.00 | 66 | 1013.9 |
| 20260906010531 | 61 | 284 | 1.0 | 2.0 | 0.00 | 0.00 | 0.00 | 67 | 1014.0 |
| 20260906010031 | 62 | 269 | 0.0 | 2.0 | 0.00 | 0.00 | 0.00 | 64 | 1014.0 |
| 20260906005530 | 62 | 255 | 0.0 | 3.0 | 0.00 | 0.00 | 0.00 | 65 | 1014.0 |
| 20260906005030 | 62 | 294 | 0.0 | 3.0 | 0.00 | 0.00 | 0.00 | 66 | 1014.0 |
| 20260906004530 | 62 | 295 | 0.0 | 3.0 | 0.00 | 0.00 | 0.00 | 66 | 1014.0 |
| 20260906004030 | 62 | 268 | 0.0 | 3.0 | 0.00 | 0.00 | 0.00 | 65 | 1013.9 |
| 20260906003529 | 62 | 278 | 0.0 | 1.0 | 0.00 | 0.00 | 0.00 | 66 | 1013.9 |
| 20260906003029 | 63 | 268 | 0.0 | 1.0 | 0.00 | 0.00 | 0.00 | 65 | 1013.9 |
| 20260906002528 | 63 | 266 | 0.0 | 1.0 | 0.00 | 0.00 | 0.00 | 65 | 1013.8 |
| 20260906002028 | 63 | 264 | 0.0 | 1.0 | 0.00 | 0.00 | 0.00 | 62 | 1013.9 |
| 20260906001529 | 63 | 266 | 0.0 | 1.0 | 0.00 | 0.00 | 0.00 | 59 | 1013.8 |
| 20260906001028 | 63 | 266 | 0.0 | 1.0 | 0.00 | 0.00 | 0.00 | 61 | 1013.7 |
| 20260906000528 | 63 | 285 | 0.0 | 1.0 | 0.00 | 0.00 | 0.00 | 61 | 1013.8 |
| 20260906000028 | 63 | 339 | 0.0 | 1.0 | 0.00 | 0.00 | 0.00 | 61 | 1013.8 |
| 20260905235529 | 63 | 284 | 0.0 | 1.0 | 0.00 | 0.00 | 0.00 | 61 | 1013.9 |
| 20260905235032 | 63 | 284 | 0.0 | 1.0 | 0.00 | 0.00 | 0.00 | 60 | 1013.8 |
| 20260905234527 | 63 | 284 | 0.0 | 3.0 | 0.00 | 0.00 | 0.00 | 57 | 1013.8 |
| 20260905234027 | 63 | 284 | 0.0 | 7.0 | 0.00 | 0.00 | 0.00 | 59 | 1013.7 |
| 20260905233527 | 63 | 274 | 3.0 | 8.0 | 0.00 | 0.00 | 0.00 | 61 | 1013.7 |
| 20260905233035 | 63 | 246 | 4.0 | 12.0 | 0.00 | 0.00 | 0.00 | 62 | 1013.7 |
| 20260905232528 | 64 | 247 | 5.0 | 14.0 | 0.00 | 0.00 | 0.00 | 58 | 1013.7 |
| 20260905232030 | 65 | 296 | 7.0 | 16.0 | 0.00 | 0.00 | 0.00 | 57 | 1013.8 |
| 20260905231533 | 69 | 308 | 8.0 | 14.0 | 0.00 | 0.00 | 0.00 | 45 | 1014.1 |
| 20260905231027 | 71 | 293 | 2.0 | 7.0 | 0.00 | 0.00 | 0.00 | 40 | 1014.2 |
| 20260905230524 | 71 | 270 | 1.0 | 6.0 | 0.00 | 0.00 | 0.00 | 36 | 1014.0 |
| 20260905230024 | 72 | 22 | 0.0 | 11.0 | 0.00 | 0.00 | 0.00 | 35 | 1013.8 |
| 20260905225526 | 73 | 152 | 7.0 | 11.0 | 0.00 | 0.00 | 0.00 | 35 | 1013.8 |
| 20260905225024 | 73 | 53 | 0.0 | 4.0 | 0.00 | 0.00 | 0.00 | 31 | 1013.4 |
| 20260905224524 | 74 | 48 | 1.0 | 5.0 | 0.00 | 0.00 | 0.00 | 30 | 1013.4 |